Weather History for Sarasota, FL

Change the Weather History Date:

Tuesday, March 6, 2012

  Actual Average Record
Temperature  
Mean Temperature 67 °F 65 °F  
Max Temperature 83 °F 75 °F 88 °F (1944)
Min Temperature 51 °F 56 °F 37 °F (1960)
Degree Days  
Heating Degree Days 0 2  
Month to date heating degree days 7 17  
Since 1 July heating degree days 205 435  
Cooling Degree Days 2 3  
Month to date cooling degree days 29 18  
Year to date cooling degree days 208 122  
Growing Degree Days 16 (Base 50)    
Moisture  
Dew Point 50 °F    
Average Humidity 59    
Maximum Humidity 83    
Minimum Humidity 32    
Precipitation  
Precipitation 0.00 in 0.14 in 2.10 in (1988)
Month to date precipitation T 0.78  
Year to date precipitation 1.73 5.97  
Sea Level Pressure  
Sea Level Pressure 30.34 in    
Wind  
Wind Speed 12 mph (ENE)    
Max Wind Speed 25 mph    
Max Gust Speed 36 mph    
Visibility 10 miles    
Events      
T = Trace of Precipitation, MM = Missing Value Source: NWS Daily Summary

Daily Weather History Graph

Daily Weather History Graph

Search for Another Location

Airport:

Trip Planner

Search our weather history database for the weather conditions in past years. The results will help you decide how hot, cold, wet, or windy it might be!

Date:

Astronomy

Mar. 06, 2012 Rise Set
Actual Time 6:48 AM EST 6:34 PM EST
Civil Twilight 6:25 AM EST 6:57 PM EST
Nautical Twilight 5:58 AM EST 7:24 PM EST
Astronomical Twilight 5:31 AM EST 7:51 PM EST
Moon 5:03 PM EST (3/6) 5:16 AM EST (3/6)
Length of Visible Light 12h 32m
Length of Day
11h 45m
Waxing Gibbous, 96% of the Moon is Illuminated
Mar 6
Waxing Gibbous
Mar 8
Full
Mar 14
Last Quarter
Mar 22
New
Mar 30
First Quarter

Hourly Weather History & Observations

Time (EST) Temp. Dew Point Humidity Pressure Visibility Wind Dir Wind Speed Gust Speed Precip Events Conditions
12:53 AM 54.0 °F 48.0 °F 80% 30.34 in 10.0 mi East 6.9 mph - N/A   Clear
1:53 AM 53.1 °F 46.0 °F 77% 30.34 in 10.0 mi East 4.6 mph - N/A   Clear
2:53 AM 52.0 °F 46.0 °F 80% 30.32 in 10.0 mi East 4.6 mph - N/A   Clear
3:53 AM 52.0 °F 46.0 °F 80% 30.31 in 10.0 mi ENE 5.8 mph - N/A   Clear
4:53 AM 53.1 °F 46.9 °F 80% 30.32 in 10.0 mi NE 5.8 mph - N/A   Clear
5:53 AM 53.1 °F 46.9 °F 80% 30.34 in 10.0 mi NE 4.6 mph - N/A   Clear
6:53 AM 53.1 °F 48.0 °F 83% 30.35 in 10.0 mi NE 4.6 mph - N/A   Clear
7:53 AM 57.9 °F 51.1 °F 78% 30.37 in 10.0 mi NE 6.9 mph - N/A   Clear
8:53 AM 64.0 °F 50.0 °F 60% 30.38 in 10.0 mi ENE 10.4 mph - N/A   Clear
9:53 AM 70.0 °F 48.9 °F 47% 30.39 in 10.0 mi East 12.7 mph - N/A   Clear
10:53 AM 75.9 °F 45.0 °F 33% 30.38 in 10.0 mi East 12.7 mph 21.9 mph N/A   Clear
11:53 AM 79.0 °F 46.9 °F 32% 30.36 in 10.0 mi East 18.4 mph 26.5 mph N/A   Clear
12:53 PM 79.0 °F 48.0 °F 34% 30.34 in 10.0 mi ENE 15.0 mph 27.6 mph N/A   Partly Cloudy
1:53 PM 81.0 °F 48.0 °F 31% 30.31 in 10.0 mi East 15.0 mph - N/A   Partly Cloudy
2:53 PM 81.0 °F 48.0 °F 31% 30.29 in 10.0 mi ESE 18.4 mph 25.3 mph N/A   Partly Cloudy
3:53 PM 80.1 °F 51.1 °F 36% 30.29 in 10.0 mi East 19.6 mph 27.6 mph N/A   Partly Cloudy
4:53 PM 77.0 °F 53.1 °F 43% 30.29 in 10.0 mi East 20.7 mph 28.8 mph N/A   Scattered Clouds
5:53 PM 75.0 °F 53.1 °F 46% 30.30 in 10.0 mi East 18.4 mph 27.6 mph N/A   Clear
6:53 PM 71.1 °F 54.0 °F 55% 30.32 in 10.0 mi East 15.0 mph 25.3 mph N/A   Partly Cloudy
7:53 PM 69.1 °F 54.0 °F 58% 30.34 in 10.0 mi East 15.0 mph - N/A   Mostly Cloudy
8:53 PM 66.9 °F 55.0 °F 66% 30.36 in 10.0 mi East 11.5 mph 20.7 mph N/A   Partly Cloudy
9:53 PM 66.2 °F 55.4 °F 68% 30.37 in 10.0 mi ENE 11.5 mph - N/A   Mostly Cloudy
10:53 PM 64.0 °F 55.0 °F 73% 30.38 in 10.0 mi East 10.4 mph - N/A   Overcast
11:53 PM 64.0 °F 55.0 °F 73% 30.37 in 10.0 mi ENE 10.4 mph - N/A   Scattered Clouds